Location: Unspecified
(0.0000°N, 0.0000°E)
Time: 23:34:50
(UTC+00:00)

Vanguard 2 - Pass Details

Date: 09 October 2020
Orbit: 554 x 2937 km, 32.9° (Epoch: 28 October)

Event Time Altitude Azimuth Distance (km) Brightness Sun altitude
Rises 22:58:37 0° 248° (WSW) 6,549 12.5 -76.2°
Reaches altitude 10° 23:02:59 10° 253° (WSW) 5,670 12.0 -77.1°
Enters shadow 23:05:54 17° 257° (WSW) 5,108 11.7 -77.7°
Maximum altitude 23:20:06 52° 324° (NW) 3,293 - -80.5°
Drops below altitude 10° 23:34:36 10° 37° (NE) 4,843 - -82.6°
Sets 23:38:02 0° 43° (NE) 5,570 - -82.9°
